• MPC Preparation (Info)

  • MPEC 2014-Q86 : 2014 QU296

    The following Minor Planet Electronic Circular may be linked-to from your own Web pages, but must not otherwise be redistributed electronically.

    A form allowing access to any MPEC is at the bottom of this page.


    Read MPEC 2014-Q85 Read MPEC 2014-Q87


    M.P.E.C. 2014-Q86                                Issued 2014 Aug. 29, 14:13 UT
    
         The Minor Planet Electronic Circulars contain information on unusual
             minor planets and routine data on comets.  They are published
       on behalf of Commission 20 of the International Astronomical Union by the
              Minor Planet Center, Smithsonian Astrophysical Observatory,
                              Cambridge, MA 02138, U.S.A.
    
                 Prepared using the Tamkin Foundation Computer Network
    
                                  MPC@CFA.HARVARD.EDU
                URL https://www.minorplanetcenter.net/    ISSN 1523-6714
    
                                      2014 QU296
    
    Observations:
         K14QT6U* C2014 08 25.42552 22 01 22.173-16 09 26.76         21.6 wLEQ086F51
         K14QT6U  C2014 08 25.43610 22 01 23.017-16 08 48.97         21.7 wLEQ086F51
         K14QT6U  C2014 08 25.44670 22 01 23.844-16 08 10.67         21.7 wLEQ086F51
         K14QT6U _C2014 08 26.31489622 02 49.392-15 17 14.55         21.4 RtEQ086568
         K14QT6U _C2014 08 26.31614922 02 49.487-15 17 10.25         21.3 RtEQ086568
         K14QT6U _C2014 08 26.31740322 02 49.590-15 17 05.89         21.4 RtEQ086568
         K14QT6U KC2014 08 29.40892 22 07 26.96 -12 24 11.7          21.3 RoEQ086291
         K14QT6U KC2014 08 29.41268 22 07 27.24 -12 23 59.3          21.2 RoEQ086291
         K14QT6U KC2014 08 29.41643 22 07 27.53 -12 23 47.4          21.1 RoEQ086291
    
    Observer details:
    291 LPL/Spacewatch II.  Observer R. S. McMillan.  1.8-m f/2.7 reflector + CCD.
    568 Mauna Kea.  Observers R. J. Wainscoat, L. Wells.  Measurers M. Micheli,
        R. J. Wainscoat.  3.6-m Canada-France-Hawaii Telescope + CCD.
    F51 Pan-STARRS 1, Haleakala.  Observers N. Primak, A. Schultz, T. Goggia,
        M. Willman.  Measurers B. Bolin, K. Chambers, S. Chastel, L. Denneau,
        H. Flewelling, M. Huber, E. Magnier, E. Schunova, R. Wainscoat, C. Waters.
        1.8-m Ritchey-Chretien + CCD.
    
    Orbital elements:
    2014 QU296                                               Earth MOID = 0.1781 AU
    Epoch 2014 Dec. 9.0 TT = JDT 2457000.5                  MPC
    M  27.48163              (2000.0)            P               Q
    n   0.21885686     Peri.  336.42922     +0.67249515     +0.73808674
    a   2.7270679      Node   335.71821     -0.65617282     +0.56050338
    e   0.5662573      Incl.    7.62618     -0.34232661     +0.37558478
    P   4.50           H   24.3           G   0.15           U   7
    Residuals in seconds of arc
    140825 F51  0.1+  0.2-    140826 568  0.2+  0.0     140829 291  0.2+  0.1+
    140825 F51  0.2+  0.1-    140826 568  0.1+  0.0     140829 291  0.1+  0.2+
    140825 F51  0.0   0.5+    140826 568  0.2+  0.0     140829 291  0.2+  0.1-
    
    Ephemeris:
    2014 QU296               a,e,i = 2.73, 0.57, 8                   q = 1.1828
    Date    TT    R. A. (2000) Decl.     Delta      r     Elong.  Phase     V
    2014 07 30    20 56 23.0 -43 21 01   0.1849  1.1853   154.9    21.3    22.0
    ...
    2014 08 14    21 39 06.3 -28 21 46   0.1787  1.1872   166.1    11.8    21.7
    ...
    2014 08 22    21 55 30.9 -19 38 31   0.1891  1.1991   172.1     6.7    21.6
    ...
    2014 08 28    22 05 23.5 -13 40 58   0.2034  1.2127   173.8     5.1    21.7
    2014 08 29    22 06 52.7 -12 45 53   0.2064  1.2154   173.7     5.2    21.7
    2014 08 30    22 08 19.6 -11 52 15   0.2095  1.2181   173.5     5.4    21.8
    ...
    2014 09 05    22 16 19.4 -07 01 45   0.2310  1.2368   170.6     7.7    22.1
    ...
    2014 09 13    22 25 39.8 -01 57 27   0.2675  1.2670   165.5    11.4    22.7
    ...
    2014 09 28    22 41 28.5 +04 04 16   0.3585  1.3378   156.1    17.7    23.6
    
    A. U. Tomatic                (C) Copyright 2014 MPC           M.P.E.C. 2014-Q86
    

    Read MPEC 2014-Q85 Read MPEC 2014-Q87


    MPEC number:

    Enter an MPEC number in one of the following forms:

    • 1997-B01 (the full form)
    • J97B01 (the packed version of the full form)
    • B01 (the abbreviated form)